Shelton, WA
on Thursday, January 10, 2013

Thursday
Previous Day Next Day
Daily Summary
 ActualAverage (KOLM)Record (KOLM)
Temperature
Mean Temperature °F 40°F  
Max Temperature 37°F 45°F 57°F (1961)
Min Temperature 30°F 34°F 8°F (1949)
Degree Days
Heating Degree Days 32 26  
Month to date heating degree days 260  
Since 1 July heating degree days 2530  
Cooling Degree Days 0 0  
Month to date cooling degree days 0  
Year to date cooling degree days 0  
Moisture
Dew Point 32°F   
Average Humidity 97    
Maximum Humidity 100    
Minimum Humidity 86    
Precipitation
Precipitation 0.00 in 0.26 in 1.56 in (2006)
Month to date precipitation 2.57  
Year to date precipitation 2.57  
Wind
Wind Speed 3 mph   
Max Wind Speed 8 mph   
Max Gust Speed mph   
Visibility 8 miles   
Events     

Key: T is trace of precipitation, MM is missing value
Source: NWS Daily Summary
Time(PST)TemperatureDew PointHumidity Pressure Visibility Wind DirectionWind SpeedGust SpeedPrecipitationEvents Conditions
12:03 AM 32.0°F 32.0°F 100% 29.92 in 10.0 miles WSW 6.9 mph - N/A   Scattered Clouds
12:12 AM 32.0°F 32.0°F 100% 29.92 in 10.0 miles WSW 8.1 mph - N/A   Mostly Cloudy
12:53 AM 32.0°F 32.0°F 100% 29.94 in 10.0 miles WSW 8.1 mph - N/A   Overcast
1:53 AM 32.0°F 30.9°F 96% 29.96 in 10.0 miles East 3.5 mph - N/A   Overcast
2:53 AM 32.0°F 32.0°F 100% 29.97 in 8.0 miles West 3.5 mph - N/A   Overcast
3:53 AM 30.9°F 30.9°F 100% 29.97 in 4.0 miles Calm Calm - N/A   Overcast
4:08 AM 30.2°F 30.2°F 100% 29.96 in 2.5 miles Calm Calm - N/A   Overcast
4:30 AM 30.2°F 30.2°F 100% 29.97 in 1.8 miles Calm Calm - N/A   Overcast
4:53 AM 30.9°F 30.9°F 100% 29.99 in 1.5 miles Calm Calm - N/A   Overcast
5:40 AM 30.2°F 30.2°F 100% 29.98 in 2.5 miles Calm Calm - N/A   Overcast
5:53 AM 30.9°F 30.9°F 100% 30.01 in 2.5 miles Calm Calm - N/A   Overcast
6:10 AM 32.0°F 32.0°F 100% 29.99 in 1.5 miles Calm Calm - N/A   Overcast
6:48 AM 32.0°F 32.0°F 100% 30.00 in 1.8 miles Calm Calm - N/A   Overcast
6:53 AM 32.0°F 32.0°F 100% 30.01 in 2.5 miles Calm Calm - N/A   Overcast
7:00 AM 32.0°F 32.0°F 100% 30.01 in 8.0 miles Calm Calm - N/A   Overcast
7:08 AM 32.0°F 32.0°F 100% 30.01 in 6.0 miles Calm Calm - N/A   Overcast
7:16 AM 32.0°F 32.0°F 100% 30.02 in 4.0 miles Calm Calm - N/A   Overcast
7:23 AM 32.0°F 32.0°F 100% 30.02 in 5.0 miles Calm Calm - N/A   Overcast
7:53 AM 32.0°F 32.0°F 100% 30.06 in 10.0 miles Calm Calm - N/A   Overcast
8:10 AM 32.0°F 32.0°F 100% 30.04 in 9.0 miles Calm Calm - N/A   Overcast
8:18 AM 32.0°F 32.0°F 100% 30.05 in 7.0 miles Calm Calm - N/A   Overcast
8:53 AM 32.0°F 32.0°F 100% 30.07 in 10.0 miles Calm Calm - N/A   Overcast
9:53 AM 32.0°F 32.0°F 100% 30.08 in 10.0 miles Calm Calm - N/A   Overcast
10:07 AM 33.8°F 33.8°F 100% 30.06 in 10.0 miles Calm Calm - N/A   Overcast
10:51 AM 33.8°F 33.8°F 100% 30.06 in 10.0 miles Calm Calm - N/A   Overcast
10:53 AM 34.0°F 34.0°F 100% 30.08 in 10.0 miles West 3.5 mph - N/A   Overcast
11:02 AM 33.8°F 33.8°F 100% 30.07 in 10.0 miles WSW 3.5 mph - N/A   Overcast
11:53 AM 34.0°F 33.1°F 96% 30.07 in 10.0 miles WSW 4.6 mph - N/A   Overcast
12:53 PM 36.0°F 33.1°F 89% 30.07 in 10.0 miles SW 5.8 mph - N/A   Overcast
1:53 PM 36.0°F 33.1°F 89% 30.07 in 10.0 miles WSW 3.5 mph - N/A   Overcast
2:49 PM 37.4°F 33.8°F 87% 30.06 in 10.0 miles SE 3.5 mph - N/A   Overcast
2:53 PM 37.0°F 33.1°F 86% 30.08 in 10.0 miles SSE 3.5 mph - N/A   Overcast
3:53 PM 37.0°F 33.1°F 86% 30.09 in 10.0 miles West 3.5 mph - N/A   Overcast
4:53 PM 36.0°F 33.1°F 89% 30.09 in 10.0 miles Calm Calm - N/A   Overcast
5:30 PM 35.6°F 32.0°F 87% 30.06 in 10.0 miles Calm Calm - N/A   Overcast
5:53 PM 34.0°F 33.1°F 96% 30.09 in 10.0 miles Calm Calm - N/A   Overcast
6:53 PM 35.1°F 33.1°F 92% 30.09 in 10.0 miles Calm Calm - N/A   Overcast
7:53 PM 34.0°F 34.0°F 100% 30.10 in 10.0 miles Calm Calm - N/A   Overcast
8:44 PM 33.8°F 33.8°F 100% 30.08 in 10.0 miles Calm Calm - N/A   Overcast
8:53 PM 34.0°F 33.1°F 96% 30.10 in 10.0 miles Calm Calm - N/A   Overcast
9:53 PM 33.1°F 33.1°F 100% 30.11 in 10.0 miles Calm Calm - N/A   Overcast
10:20 PM 33.8°F 33.8°F 100% 30.09 in 10.0 miles Calm Calm - N/A   Overcast
10:53 PM 34.0°F 33.1°F 96% 30.11 in 10.0 miles Calm Calm - N/A   Overcast
11:19 PM 33.8°F 33.8°F 100% 30.10 in 10.0 miles Calm Calm - N/A   Overcast
11:53 PM 34.0°F 33.1°F 96% 30.12 in 10.0 miles Calm Calm - N/A   Overcast
Moon Phase
Jan. 10 Jan. 11 Jan. 18 Jan. 26 Feb. 03
Sunrise:07:57 AM (PST) Moon Rise:06:41 AM (PST)1/10
Sunset:04:43 PM (PST) Moon Set:03:59 PM (PST)1/10

Copyright © 2014 The Weather Underground, Inc.